When you browse on this site, cookies collect data to enhance your experience and personalize the content and advertising you see.
Visit our Privacy Policy to learn more. By continuing to use the site, you agree to this use of cookies and data.
  • In United Kingdom
  • List of Countries
  • For 7 days
  • Water Temperature
  • Weather Map
  • Weather Widgets
  • user-avatar
    Login

    Hourly Weather Canberra

    Today, 26 January, Sunday

    Time Temperature Precipitation Wind Pressure Humidity
    00:00 +22°C° 0 mm 1 mps 707 mmHg 85%
    01:00 +22°C° 0 mm 1 mps 707 mmHg 87%
    02:00 +21°C° 0 mm 1 mps 707 mmHg 89%
    03:00 +21°C° 0 mm 1 mps 707 mmHg 91%
    04:00 +18°C° 0 mm 0 mps 707 mmHg 93%
    05:00 +19°C° 0 mm 0 mps 707 mmHg 87%
    06:00 +20°C° 0 mm 0 mps 707 mmHg 81%
    07:00 +21°C° 0 mm 0 mps 708 mmHg 75%
    08:00 +26°C° 0 mm 2 mps 708 mmHg 58%
    09:00 +29°C° 0 mm 3 mps 708 mmHg 42%
    10:00 +32°C° 0 mm 4 mps 708 mmHg 25%
    11:00 +33°C° 0 mm 5 mps 708 mmHg 22%
    12:00 +34°C° 0 mm 5 mps 708 mmHg 18%
    13:00 +35°C° 0 mm 6 mps 708 mmHg 14%
    14:00 +35°C° 0 mm 5 mps 707 mmHg 14%
    15:00 +35°C° 0 mm 5 mps 707 mmHg 13%
    16:00 +35°C° 0 mm 4 mps 707 mmHg 13%
    17:00 +33°C° 0 mm 3 mps 707 mmHg 17%
    18:00 +30°C° 0 mm 2 mps 707 mmHg 22%
    19:00 +28°C° 0 mm 2 mps 708 mmHg 26%
    20:00 +25°C° 0 mm 2 mps 708 mmHg 43%
    21:00 +22°C° 0 mm 3 mps 708 mmHg 60%
    22:00 +20°C° 0 mm 4 mps 709 mmHg 77%
    23:00 +19°C° 0 mm 3 mps 708 mmHg 78%

    Tomorrow, 27 January, Monday

    Time Temperature Precipitation Wind Pressure Humidity
    00:00 +18°C° 0 mm 2 mps 708 mmHg 80%
    01:00 +17°C° 0 mm 2 mps 708 mmHg 81%
    02:00 +16°C° 0 mm 1 mps 708 mmHg 82%
    03:00 +16°C° 0 mm 1 mps 708 mmHg 83%
    04:00 +15°C° 0 mm 1 mps 708 mmHg 85%
    05:00 +18°C° 0 mm 1 mps 708 mmHg 80%
    06:00 +19°C° 0 mm 1 mps 708 mmHg 75%
    07:00 +20°C° 0 mm 1 mps 708 mmHg 70%
    08:00 +24°C° 0 mm 1 mps 709 mmHg 60%
    09:00 +27°C° 0 mm 1 mps 709 mmHg 50%
    10:00 +30°C° 0 mm 1 mps 710 mmHg 40%
    11:00 +32°C° 0 mm 2 mps 709 mmHg 33%
    12:00 +35°C° 0 mm 3 mps 709 mmHg 25%
    13:00 +36°C° 0 mm 4 mps 708 mmHg 18%
    14:00 +36°C° 0 mm 4 mps 707 mmHg 17%
    15:00 +36°C° 0 mm 4 mps 707 mmHg 17%
    16:00 +37°C° 0 mm 4 mps 706 mmHg 17%
    17:00 +34°C° 0 mm 3 mps 707 mmHg 21%
    18:00 +31°C° 0 mm 2 mps 707 mmHg 25%
    19:00 +29°C° 0 mm 2 mps 707 mmHg 30%
    20:00 +26°C° 0 mm 2 mps 707 mmHg 48%
    21:00 +24°C° 0 mm 3 mps 708 mmHg 67%
    22:00 +21°C° 0 mm 3 mps 708 mmHg 85%
    23:00 +21°C° 0 mm 2 mps 708 mmHg 86%

    Day after tomorrow, 28 January, Tuesday

    Time Temperature Precipitation Wind Pressure Humidity
    00:00 +20°C° 0 mm 2 mps 708 mmHg 86%
    01:00 +21°C° 0 mm 1 mps 707 mmHg 86%
    02:00 +22°C° 0 mm 1 mps 707 mmHg 85%
    03:00 +22°C° 0 mm 1 mps 707 mmHg 84%
    04:00 +20°C° 0 mm 0 mps 707 mmHg 83%
    05:00 +21°C° 0 mm 0 mps 707 mmHg 81%
    06:00 +21°C° 0 mm 0 mps 708 mmHg 79%
    07:00 +22°C° 0 mm 0 mps 708 mmHg 77%
    08:00 +26°C° 0 mm 1 mps 708 mmHg 61%
    09:00 +29°C° 0 mm 3 mps 709 mmHg 44%
    10:00 +33°C° 0 mm 4 mps 709 mmHg 27%
    11:00 +34°C° 0 mm 4 mps 709 mmHg 23%
    12:00 +35°C° 0 mm 5 mps 708 mmHg 20%
    13:00 +36°C° 0 mm 5 mps 708 mmHg 16%
    14:00 +36°C° 0 mm 5 mps 708 mmHg 15%
    15:00 +36°C° 0 mm 4 mps 708 mmHg 15%
    16:00 +36°C° 0 mm 4 mps 708 mmHg 14%
    17:00 +32°C° 0 mm 4 mps 708 mmHg 31%
    18:00 +27°C° 0 mm 4 mps 708 mmHg 47%
    19:00 +22°C° 0 mm 4 mps 708 mmHg 64%
    20:00 +21°C° 0 mm 3 mps 709 mmHg 71%
    21:00 +19°C° 0 mm 3 mps 709 mmHg 79%
    22:00 +18°C° 0 mm 2 mps 710 mmHg 86%
    23:00 +17°C° 0 mm 2 mps 710 mmHg 88%

    29 January, Wednesday

    Time Temperature Precipitation Wind Pressure Humidity
    00:00 +18°C° 0 mm 1 mps 710 mmHg 90%
    01:00 +16°C° 0 mm 1 mps 709 mmHg 93%
    02:00 +16°C° 0 mm 1 mps 709 mmHg 93%
    03:00 +16°C° 0 mm 1 mps 709 mmHg 94%
    04:00 +15°C° 0 mm 1 mps 709 mmHg 95%
    05:00 +16°C° 0 mm 1 mps 710 mmHg 87%
    06:00 +19°C° 0 mm 1 mps 710 mmHg 79%
    07:00 +20°C° 0 mm 1 mps 710 mmHg 70%
    08:00 +23°C° 0 mm 1 mps 711 mmHg 59%
    09:00 +26°C° 0 mm 1 mps 711 mmHg 47%
    10:00 +29°C° 0 mm 1 mps 712 mmHg 35%
    11:00 +31°C° 0 mm 1 mps 711 mmHg 30%
    12:00 +33°C° 0 mm 1 mps 711 mmHg 25%
    13:00 +36°C° 0 mm 1 mps 711 mmHg 20%
    14:00 +36°C° 0 mm 2 mps 710 mmHg 19%
    15:00 +36°C° 0 mm 2 mps 710 mmHg 18%
    16:00 +36°C° 0 mm 2 mps 709 mmHg 17%
    17:00 +33°C° 0 mm 3 mps 709 mmHg 31%
    18:00 +28°C° 0 mm 4 mps 709 mmHg 44%
    19:00 +23°C° 0 mm 5 mps 710 mmHg 57%
    20:00 +22°C° 0 mm 4 mps 710 mmHg 66%
    21:00 +20°C° 0 mm 3 mps 710 mmHg 74%
    22:00 +18°C° 0 mm 2 mps 711 mmHg 83%
    23:00 +17°C° 0 mm 2 mps 710 mmHg 84%

    30 January, Thursday

    Time Temperature Precipitation Wind Pressure Humidity
    00:00 +17°C° 0 mm 2 mps 710 mmHg 86%
    01:00 +16°C° 0 mm 1 mps 710 mmHg 88%
    02:00 +16°C° 0 mm 1 mps 710 mmHg 86%
    03:00 +16°C° 0 mm 1 mps 710 mmHg 85%
    04:00 +16°C° 0 mm 1 mps 710 mmHg 83%
    05:00 +19°C° 0 mm 1 mps 710 mmHg 74%
    06:00 +20°C° 0 mm 1 mps 711 mmHg 64%
    07:00 +22°C° 0 mm 1 mps 711 mmHg 55%
    08:00 +26°C° 0 mm 1 mps 711 mmHg 47%
    09:00 +29°C° 0 mm 1 mps 712 mmHg 38%
    10:00 +33°C° 0 mm 1 mps 712 mmHg 30%
    11:00 +34°C° 0 mm 1 mps 712 mmHg 26%
    12:00 +37°C° 0 mm 2 mps 711 mmHg 22%
    13:00 +38°C° 0 mm 2 mps 711 mmHg 18%
    14:00 +38°C° 0 mm 2 mps 710 mmHg 17%
    15:00 +39°C° 0 mm 2 mps 710 mmHg 16%
    16:00 +39°C° 0 mm 3 mps 709 mmHg 16%
    17:00 +36°C° 0 mm 2 mps 709 mmHg 20%
    18:00 +34°C° 0 mm 2 mps 709 mmHg 25%
    19:00 +31°C° 0 mm 2 mps 709 mmHg 29%
    20:00 +29°C° 0 mm 2 mps 709 mmHg 41%
    21:00 +26°C° 0 mm 2 mps 710 mmHg 53%
    22:00 +24°C° 0 mm 2 mps 710 mmHg 65%
    23:00 +23°C° 0 mm 1 mps 709 mmHg 70%

    31 January, Friday

    Time Temperature Precipitation Wind Pressure Humidity
    00:00 +23°C° 0 mm 1 mps 709 mmHg 75%
    01:00 +22°C° 0 mm 1 mps 709 mmHg 80%
    02:00 +20°C° 0 mm 0 mps 709 mmHg 82%
    03:00 +19°C° 0 mm 0 mps 709 mmHg 83%
    04:00 +19°C° 0 mm 0 mps 709 mmHg 84%
    05:00 +21°C° 0 mm 0 mps 709 mmHg 76%
    06:00 +23°C° 0 mm 0 mps 710 mmHg 68%
    07:00 +25°C° 0 mm 0 mps 710 mmHg 60%
    08:00 +29°C° 0 mm 2 mps 711 mmHg 51%
    09:00 +33°C° 0 mm 4 mps 711 mmHg 43%
    10:00 +36°C° 0 mm 5 mps 711 mmHg 34%
    11:00 +39°C° 0 mm 5 mps 710 mmHg 31%
    12:00 +40°C° 0 mm 5 mps 710 mmHg 28%
    13:00 +41°C° 0 mm 5 mps 709 mmHg 25%
    14:00 +41°C° 0 mm 5 mps 709 mmHg 25%
    15:00 +40°C° 0 mm 5 mps 709 mmHg 26%
    16:00 +40°C° 0 mm 4 mps 708 mmHg 26%
    17:00 +37°C° 0 mm 4 mps 708 mmHg 29%
    18:00 +36°C° 0 mm 3 mps 708 mmHg 32%
    19:00 +34°C° 0 mm 2 mps 708 mmHg 36%
    20:00 +32°C° 0 mm 2 mps 709 mmHg 39%
    21:00 +30°C° 0 mm 1 mps 709 mmHg 42%
    22:00 +27°C° 0 mm 0 mps 709 mmHg 45%
    23:00 +29°C° 0 mm 1 mps 709 mmHg 46%
    Show more